Time,TemperatureF,DewpointF,PressureIn,WindDirection,WindDirectionDegrees,WindSpeedMPH,WindSpeedGustMPH,Humidity,HourlyPrecipIn,Conditions,Clouds,dailyrainin,SolarRadiationWatts/m^2,SoftwareType,DateUTC
2013-01-08 00:00:00,38.6,25.9,29.79,SW,222,17.0,25.0,60,0.00,,---,0.00,0.00,VWS V14.01,2013-01-08 06:00:00,
2013-01-08 00:04:00,38.5,26.2,29.79,SW,220,20.0,22.0,61,0.00,,---,0.00,0.00,VWS V14.01,2013-01-08 06:04:00,
2013-01-08 00:05:00,38.5,26.2,29.79,SSW,196,22.0,26.0,61,0.00,,---,0.00,0.00,VWS V14.01,2013-01-08 06:05:00,
2013-01-08 00:09:00,38.3,26.0,29.79,SSW,210,13.0,20.0,61,0.00,,---,0.00,0.00,VWS V14.01,2013-01-08 06:09:00,
2013-01-08 00:10:00,38.3,26.0,29.79,SSW,195,14.0,25.0,61,0.00,,---,0.00,0.00,VWS V14.01,2013-01-08 06:10:00,
2013-01-08 00:14:00,38.2,26.0,29.78,SW,219,24.0,24.0,61,0.00,,---,0.00,0.00,VWS V14.01,2013-01-08 06:14:00,
2013-01-08 00:15:00,38.2,26.0,29.78,WSW,254,17.0,24.0,61,0.00,,---,0.00,0.00,VWS V14.01,2013-01-08 06:15:00,
2013-01-08 00:20:00,38.0,26.1,29.78,WSW,253,20.0,24.0,62,0.00,,---,0.00,0.00,VWS V14.01,2013-01-08 06:20:00,
2013-01-08 00:25:00,37.9,26.1,29.78,SSW,193,14.0,19.0,62,0.00,,---,0.00,0.00,VWS V14.01,2013-01-08 06:25:00,
2013-01-08 00:30:00,37.8,26.0,29.78,SW,219,24.0,26.0,62,0.00,,---,0.00,0.00,VWS V14.01,2013-01-08 06:30:00,
2013-01-08 00:35:00,37.8,26.0,29.78,SW,215,20.0,20.0,62,0.00,,---,0.00,0.00,VWS V14.01,2013-01-08 06:35:00,
2013-01-08 00:40:00,37.6,25.8,29.78,South,178,14.0,22.0,62,0.00,,---,0.00,0.00,VWS V14.01,2013-01-08 06:40:00,
2013-01-08 00:45:00,37.5,25.7,29.78,NW,319,14.0,17.0,62,0.00,,---,0.00,0.00,VWS V14.01,2013-01-08 06:45:00,
2013-01-08 00:50:00,37.2,25.8,29.78,SSW,205,19.0,20.0,63,0.00,,---,0.00,0.00,VWS V14.01,2013-01-08 06:50:00,
2013-01-08 00:55:00,37.2,25.8,29.78,SW,215,20.0,24.0,63,0.00,,---,0.00,0.00,VWS V14.01,2013-01-08 06:55:00,
2013-01-08 01:00:00,36.9,25.5,29.78,South,189,17.0,22.0,63,0.00,,---,0.00,0.00,VWS V14.01,2013-01-08 07:00:00,
2013-01-08 01:05:00,36.8,25.8,29.78,South,189,19.0,22.0,64,0.00,,---,0.00,0.00,VWS V14.01,2013-01-08 07:05:00,
2013-01-08 01:10:00,36.8,25.8,29.78,South,191,12.0,21.0,64,0.00,,---,0.00,0.00,VWS V14.01,2013-01-08 07:10:00,
2013-01-08 01:15:00,36.8,25.8,29.78,SW,216,14.0,21.0,64,0.00,,---,0.00,0.00,VWS V14.01,2013-01-08 07:15:00,
2013-01-08 01:16:00,36.8,25.8,29.78,South,182,17.0,21.0,64,0.00,,---,0.00,0.00,VWS V14.01,2013-01-08 07:16:00,
2013-01-08 01:20:00,36.8,25.8,29.78,South,189,11.0,22.0,64,0.00,,---,0.00,0.00,VWS V14.01,2013-01-08 07:20:00,
2013-01-08 01:21:00,36.8,25.8,29.78,South,189,17.0,22.0,64,0.00,,---,0.00,0.00,VWS V14.01,2013-01-08 07:21:00,
2013-01-08 01:25:00,36.6,25.6,29.78,SW,219,18.0,22.0,64,0.00,,---,0.00,0.00,VWS V14.01,2013-01-08 07:25:00,
2013-01-08 01:26:00,36.6,25.6,29.78,SSW,213,14.0,19.0,64,0.00,,---,0.00,0.00,VWS V14.01,2013-01-08 07:26:00,
2013-01-08 01:30:00,36.5,25.5,29.78,SW,216,17.0,21.0,64,0.00,,---,0.00,0.00,VWS V14.01,2013-01-08 07:30:00,
2013-01-08 01:31:00,36.5,25.5,29.78,SSW,193,18.0,21.0,64,0.00,,---,0.00,0.00,VWS V14.01,2013-01-08 07:31:00,
2013-01-08 01:35:00,36.5,25.5,29.78,SW,215,17.0,21.0,64,0.00,,---,0.00,0.00,VWS V14.01,2013-01-08 07:35:00,
2013-01-08 01:36:00,36.5,25.5,29.78,SSW,193,18.0,21.0,64,0.00,,---,0.00,0.00,VWS V14.01,2013-01-08 07:36:00,
2013-01-08 01:40:00,36.5,25.5,29.78,South,186,18.0,21.0,64,0.00,,---,0.00,0.00,VWS V14.01,2013-01-08 07:40:00,
2013-01-08 01:41:00,36.3,25.3,29.78,SSW,202,13.0,21.0,64,0.00,,---,0.00,0.00,VWS V14.01,2013-01-08 07:41:00,
2013-01-08 01:45:00,36.3,25.3,29.78,SSW,212,17.0,21.0,64,0.00,,---,0.00,0.00,VWS V14.01,2013-01-08 07:45:00,
2013-01-08 01:46:00,36.2,25.6,29.78,South,191,18.0,19.0,65,0.00,,---,0.00,0.00,VWS V14.01,2013-01-08 07:46:00,
2013-01-08 01:50:00,36.2,25.6,29.78,South,189,17.0,20.0,65,0.00,,---,0.00,0.00,VWS V14.01,2013-01-08 07:50:00,
2013-01-08 01:51:00,36.2,25.6,29.78,SW,219,14.0,24.0,65,0.00,,---,0.00,0.00,VWS V14.01,2013-01-08 07:51:00,
2013-01-08 01:55:00,36.2,25.2,29.78,SSW,200,11.0,24.0,64,0.00,,---,0.00,0.00,VWS V14.01,2013-01-08 07:55:00,
2013-01-08 01:56:00,36.2,25.2,29.78,South,171,24.0,24.0,64,0.00,,---,0.00,0.00,VWS V14.01,2013-01-08 07:56:00,
2013-01-08 02:00:00,36.2,25.2,29.78,SSW,195,12.0,24.0,64,0.00,,---,0.00,0.00,VWS V14.01,2013-01-08 08:00:00,
2013-01-08 02:01:00,36.2,25.2,29.78,South,189,12.0,19.0,64,0.00,,---,0.00,0.00,VWS V14.01,2013-01-08 08:01:00,
2013-01-08 02:05:00,36.0,25.4,29.78,SSW,193,17.0,20.0,65,0.00,,---,0.00,0.00,VWS V14.01,2013-01-08 08:05:00,
2013-01-08 02:06:00,36.0,25.4,29.78,SSW,203,16.0,21.0,65,0.00,,---,0.00,0.00,VWS V14.01,2013-01-08 08:06:00,
2013-01-08 02:10:00,35.9,25.3,29.78,SSW,209,12.0,21.0,65,0.00,,---,0.00,0.00,VWS V14.01,2013-01-08 08:10:00,
2013-01-08 02:11:00,35.9,25.3,29.78,South,176,19.0,20.0,65,0.00,,---,0.00,0.00,VWS V14.01,2013-01-08 08:11:00,
2013-01-08 02:15:00,35.8,25.2,29.78,SW,215,13.0,20.0,65,0.00,,---,0.00,0.00,VWS V14.01,2013-01-08 08:15:00,
2013-01-08 02:16:00,35.8,25.2,29.78,South,182,14.0,21.0,65,0.00,,---,0.00,0.00,VWS V14.01,2013-01-08 08:16:00,
2013-01-08 02:20:00,35.6,25.0,29.78,SSW,192,13.0,21.0,65,0.00,,---,0.00,0.00,VWS V14.01,2013-01-08 08:20:00,
2013-01-08 02:21:00,35.6,25.4,29.78,South,176,20.0,20.0,66,0.00,,---,0.00,0.00,VWS V14.01,2013-01-08 08:21:00,
2013-01-08 02:25:00,35.5,25.3,29.78,South,185,16.0,20.0,66,0.00,,---,0.00,0.00,VWS V14.01,2013-01-08 08:25:00,
2013-01-08 02:27:00,35.5,25.3,29.78,South,191,15.0,17.0,66,0.00,,---,0.00,0.00,VWS V14.01,2013-01-08 08:27:00,
2013-01-08 02:30:00,35.5,25.3,29.78,South,186,12.0,19.0,66,0.00,,---,0.00,0.00,VWS V14.01,2013-01-08 08:30:00,
2013-01-08 02:32:00,35.3,25.5,29.78,South,178,18.0,21.0,67,0.00,,---,0.00,0.00,VWS V14.01,2013-01-08 08:32:00,
2013-01-08 02:35:00,35.2,25.4,29.78,South,189,17.0,21.0,67,0.00,,---,0.00,0.00,VWS V14.01,2013-01-08 08:35:00,
2013-01-08 02:37:00,35.2,25.4,29.78,South,182,13.0,20.0,67,0.00,,---,0.00,0.00,VWS V14.01,2013-01-08 08:37:00,
2013-01-08 02:40:00,35.2,25.7,29.78,SSW,193,15.0,20.0,68,0.00,,---,0.00,0.00,VWS V14.01,2013-01-08 08:40:00,
2013-01-08 02:42:00,35.0,25.5,29.78,South,186,14.0,22.0,68,0.00,,---,0.00,0.00,VWS V14.01,2013-01-08 08:42:00,
2013-01-08 02:45:00,35.0,25.5,29.78,SSW,199,18.0,22.0,68,0.00,,---,0.00,0.00,VWS V14.01,2013-01-08 08:45:00,
2013-01-08 02:47:00,35.0,25.5,29.78,South,184,16.0,20.0,68,0.00,,---,0.00,0.00,VWS V14.01,2013-01-08 08:47:00,
2013-01-08 02:50:00,35.0,25.5,29.78,SSW,196,16.0,20.0,68,0.00,,---,0.00,0.00,VWS V14.01,2013-01-08 08:50:00,
2013-01-08 02:52:00,34.9,25.8,29.78,South,184,13.0,24.0,69,0.00,,---,0.00,0.00,VWS V14.01,2013-01-08 08:52:00,
2013-01-08 02:55:00,34.9,25.8,29.78,SSE,164,18.0,24.0,69,0.00,,---,0.00,0.00,VWS V14.01,2013-01-08 08:55:00,
2013-01-08 02:57:00,34.7,25.6,29.78,South,171,10.0,19.0,69,0.00,,---,0.00,0.00,VWS V14.01,2013-01-08 08:57:00,
2013-01-08 03:00:00,34.7,25.6,29.78,South,175,18.0,19.0,69,0.00,,---,0.00,0.00,VWS V14.01,2013-01-08 09:00:00,
2013-01-08 03:02:00,34.6,25.5,29.78,South,189,17.0,20.0,69,0.00,,---,0.00,0.00,VWS V14.01,2013-01-08 09:02:00,
2013-01-08 03:05:00,34.6,25.8,29.78,SW,227,16.0,20.0,70,0.00,,---,0.00,0.00,VWS V14.01,2013-01-08 09:05:00,
2013-01-08 03:07:00,34.6,25.8,29.78,SW,216,13.0,21.0,70,0.00,,---,0.00,0.00,VWS V14.01,2013-01-08 09:07:00,
2013-01-08 03:10:00,34.6,25.8,29.78,South,184,18.0,21.0,70,0.00,,---,0.00,0.00,VWS V14.01,2013-01-08 09:10:00,
2013-01-08 03:12:00,34.6,25.8,29.78,SSW,192,11.0,22.0,70,0.00,,---,0.00,0.00,VWS V14.01,2013-01-08 09:12:00,
2013-01-08 03:15:00,34.6,25.8,29.78,South,189,17.0,22.0,70,0.00,,---,0.00,0.00,VWS V14.01,2013-01-08 09:15:00,
2013-01-08 03:17:00,34.6,25.8,29.78,South,191,21.0,22.0,70,0.00,,---,0.00,0.00,VWS V14.01,2013-01-08 09:17:00,
2013-01-08 03:20:00,34.6,25.8,29.78,SSW,195,16.0,22.0,70,0.00,,---,0.00,0.00,VWS V14.01,2013-01-08 09:20:00,
2013-01-08 03:22:00,34.6,25.8,29.78,SSW,199,19.0,22.0,70,0.00,,---,0.00,0.00,VWS V14.01,2013-01-08 09:22:00,
2013-01-08 03:25:00,34.6,25.8,29.78,South,189,17.0,24.0,70,0.00,,---,0.00,0.00,VWS V14.01,2013-01-08 09:25:00,
2013-01-08 03:27:00,34.7,25.9,29.78,South,184,19.0,20.0,70,0.00,,---,0.00,0.00,VWS V14.01,2013-01-08 09:27:00,
2013-01-08 03:30:00,34.7,25.9,29.78,SSW,192,16.0,20.0,70,0.00,,---,0.00,0.00,VWS V14.01,2013-01-08 09:30:00,
2013-01-08 03:32:00,34.9,26.1,29.78,South,185,19.0,22.0,70,0.00,,---,0.00,0.00,VWS V14.01,2013-01-08 09:32:00,
2013-01-08 03:35:00,34.9,26.1,29.78,South,185,18.0,22.0,70,0.00,,---,0.00,0.00,VWS V14.01,2013-01-08 09:35:00,
2013-01-08 03:38:00,34.9,25.8,29.78,South,188,14.0,22.0,69,0.00,,---,0.00,0.00,VWS V14.01,2013-01-08 09:38:00,
2013-01-08 03:40:00,34.9,25.8,29.78,South,184,14.0,24.0,69,0.00,,---,0.00,0.00,VWS V14.01,2013-01-08 09:40:00,
2013-01-08 03:43:00,34.9,25.8,29.78,SSW,210,19.0,22.0,69,0.00,,---,0.00,0.00,VWS V14.01,2013-01-08 09:43:00,
2013-01-08 03:45:00,34.9,25.8,29.77,SSW,192,18.0,22.0,69,0.00,,---,0.00,0.00,VWS V14.01,2013-01-08 09:45:00,
2013-01-08 03:48:00,34.9,26.1,29.77,SSW,193,20.0,25.0,70,0.00,,---,0.00,0.00,VWS V14.01,2013-01-08 09:48:00,
2013-01-08 03:50:00,34.9,26.1,29.77,SSW,212,21.0,25.0,70,0.00,,---,0.00,0.00,VWS V14.01,2013-01-08 09:50:00,
2013-01-08 03:53:00,34.9,26.1,29.77,South,178,19.0,24.0,70,0.00,,---,0.00,0.00,VWS V14.01,2013-01-08 09:53:00,
2013-01-08 03:55:00,34.9,25.8,29.77,SSE,168,14.0,24.0,69,0.00,,---,0.00,0.00,VWS V14.01,2013-01-08 09:55:00,
2013-01-08 03:58:00,34.9,25.8,29.77,SSW,195,11.0,25.0,69,0.00,,---,0.00,0.00,VWS V14.01,2013-01-08 09:58:00,
2013-01-08 04:00:00,34.9,25.8,29.77,SSW,202,17.0,25.0,69,0.00,,---,0.00,0.00,VWS V14.01,2013-01-08 10:00:00,
2013-01-08 04:03:00,35.0,25.9,29.77,South,182,12.0,26.0,69,0.00,,---,0.00,0.00,VWS V14.01,2013-01-08 10:03:00,
2013-01-08 04:05:00,35.0,25.9,29.77,South,191,24.0,26.0,69,0.00,,---,0.00,0.00,VWS V14.01,2013-01-08 10:05:00,
2013-01-08 04:08:00,35.0,25.9,29.77,South,186,25.0,27.0,69,0.00,,---,0.00,0.00,VWS V14.01,2013-01-08 10:08:00,
2013-01-08 04:10:00,35.0,25.9,29.77,SSW,192,22.0,27.0,69,0.00,,---,0.00,0.00,VWS V14.01,2013-01-08 10:10:00,
2013-01-08 04:13:00,35.2,26.1,29.76,South,181,16.0,24.0,69,0.00,,---,0.00,0.00,VWS V14.01,2013-01-08 10:13:00,
2013-01-08 04:15:00,35.2,26.1,29.76,South,181,27.0,27.0,69,0.00,,---,0.00,0.00,VWS V14.01,2013-01-08 10:15:00,
2013-01-08 04:18:00,35.2,26.1,29.76,SSW,195,26.0,29.0,69,0.00,,---,0.00,0.00,VWS V14.01,2013-01-08 10:18:00,
2013-01-08 04:20:00,35.2,26.1,29.76,South,184,21.0,29.0,69,0.00,,---,0.00,0.00,VWS V14.01,2013-01-08 10:20:00,
2013-01-08 04:23:00,35.2,26.1,29.76,South,189,21.0,28.0,69,0.00,,---,0.00,0.00,VWS V14.01,2013-01-08 10:23:00,
2013-01-08 04:25:00,35.2,26.1,29.76,SSW,210,14.0,28.0,69,0.00,,---,0.00,0.00,VWS V14.01,2013-01-08 10:25:00,
2013-01-08 04:28:00,35.2,26.1,29.77,South,185,17.0,28.0,69,0.00,,---,0.00,0.00,VWS V14.01,2013-01-08 10:28:00,
2013-01-08 04:30:00,35.2,26.1,29.77,South,189,19.0,28.0,69,0.00,,---,0.00,0.00,VWS V14.01,2013-01-08 10:30:00,
2013-01-08 04:34:00,35.0,25.9,29.77,South,188,18.0,25.0,69,0.00,,---,0.00,0.00,VWS V14.01,2013-01-08 10:34:00,
2013-01-08 04:35:00,35.0,25.9,29.77,SSW,209,19.0,25.0,69,0.00,,---,0.00,0.00,VWS V14.01,2013-01-08 10:35:00,
2013-01-08 04:39:00,35.0,25.9,29.77,South,176,20.0,29.0,69,0.00,,---,0.00,0.00,VWS V14.01,2013-01-08 10:39:00,
2013-01-08 04:40:00,35.0,25.9,29.77,South,191,25.0,29.0,69,0.00,,---,0.00,0.00,VWS V14.01,2013-01-08 10:40:00,
2013-01-08 04:44:00,35.2,26.1,29.76,South,189,21.0,25.0,69,0.00,,---,0.00,0.00,VWS V14.01,2013-01-08 10:44:00,
2013-01-08 04:45:00,35.2,26.1,29.76,SSW,196,25.0,25.0,69,0.00,,---,0.00,0.00,VWS V14.01,2013-01-08 10:45:00,
2013-01-08 04:49:00,35.0,25.9,29.76,SSW,212,19.0,26.0,69,0.00,,---,0.00,0.00,VWS V14.01,2013-01-08 10:49:00,
2013-01-08 04:50:00,35.0,25.9,29.76,South,191,24.0,26.0,69,0.00,,---,0.00,0.00,VWS V14.01,2013-01-08 10:50:00,
2013-01-08 04:54:00,35.0,25.9,29.76,SSW,192,18.0,27.0,69,0.00,,---,0.00,0.00,VWS V14.01,2013-01-08 10:54:00,
2013-01-08 04:55:00,35.0,25.9,29.76,North,0,25.0,27.0,69,0.00,,---,0.00,0.00,VWS V14.01,2013-01-08 10:55:00,
2013-01-08 04:59:00,35.0,25.9,29.75,South,185,26.0,26.0,69,0.00,,---,0.00,0.00,VWS V14.01,2013-01-08 10:59:00,
2013-01-08 05:00:00,35.0,25.9,29.75,South,189,26.0,26.0,69,0.00,,---,0.00,0.00,VWS V14.01,2013-01-08 11:00:00,
2013-01-08 05:04:00,34.9,26.1,29.75,South,174,20.0,27.0,70,0.00,,---,0.00,0.00,VWS V14.01,2013-01-08 11:04:00,
2013-01-08 05:05:00,34.9,26.1,29.75,South,174,20.0,27.0,70,0.00,,---,0.00,0.00,VWS V14.01,2013-01-08 11:05:00,
2013-01-08 05:09:00,34.7,25.9,29.75,South,191,18.0,27.0,70,0.00,,---,0.00,0.00,VWS V14.01,2013-01-08 11:09:00,
2013-01-08 05:10:00,34.7,25.9,29.75,SW,217,27.0,27.0,70,0.00,,---,0.00,0.00,VWS V14.01,2013-01-08 11:10:00,
2013-01-08 05:14:00,34.7,25.9,29.75,South,172,20.0,22.0,70,0.00,,---,0.00,0.00,VWS V14.01,2013-01-08 11:14:00,
2013-01-08 05:15:00,34.7,25.9,29.75,South,182,22.0,27.0,70,0.00,,---,0.00,0.00,VWS V14.01,2013-01-08 11:15:00,
2013-01-08 05:19:00,34.6,25.8,29.75,South,174,21.0,24.0,70,0.00,,---,0.00,0.00,VWS V14.01,2013-01-08 11:19:00,
2013-01-08 05:20:00,34.6,25.8,29.75,South,182,24.0,27.0,70,0.00,,---,0.00,0.00,VWS V14.01,2013-01-08 11:20:00,
2013-01-08 05:24:00,34.6,25.8,29.75,South,185,21.0,24.0,70,0.00,,---,0.00,0.00,VWS V14.01,2013-01-08 11:24:00,
2013-01-08 05:25:00,34.6,26.2,29.75,South,186,22.0,26.0,71,0.00,,---,0.00,0.00,VWS V14.01,2013-01-08 11:25:00,
2013-01-08 05:29:00,34.7,25.9,29.75,South,174,21.0,22.0,70,0.00,,---,0.00,0.00,VWS V14.01,2013-01-08 11:29:00,
2013-01-08 05:30:00,34.7,25.9,29.75,South,172,22.0,26.0,70,0.00,,---,0.00,0.00,VWS V14.01,2013-01-08 11:30:00,
2013-01-08 05:34:00,34.9,26.1,29.75,SSE,168,25.0,25.0,70,0.00,,---,0.00,0.00,VWS V14.01,2013-01-08 11:34:00,
2013-01-08 05:35:00,34.9,26.1,29.75,South,172,21.0,29.0,70,0.00,,---,0.00,0.00,VWS V14.01,2013-01-08 11:35:00,
2013-01-08 05:39:00,35.0,26.2,29.75,South,188,20.0,20.0,70,0.00,,---,0.00,0.00,VWS V14.01,2013-01-08 11:39:00,
2013-01-08 05:40:00,35.0,26.2,29.75,South,181,16.0,28.0,70,0.00,,---,0.00,0.00,VWS V14.01,2013-01-08 11:40:00,
2013-01-08 05:45:00,35.0,26.2,29.74,South,176,27.0,27.0,70,0.00,,---,0.00,0.00,VWS V14.01,2013-01-08 11:45:00,
2013-01-08 05:50:00,35.2,26.4,29.74,South,188,22.0,22.0,70,0.00,,---,0.00,0.00,VWS V14.01,2013-01-08 11:50:00,
2013-01-08 05:55:00,35.3,26.5,29.74,South,175,25.0,25.0,70,0.00,,---,0.00,0.00,VWS V14.01,2013-01-08 11:55:00,
2013-01-08 06:00:00,35.3,26.5,29.74,South,186,17.0,22.0,70,0.00,,---,0.00,0.00,VWS V14.01,2013-01-08 12:00:00,
2013-01-08 06:05:00,35.3,26.5,29.74,South,171,26.0,27.0,70,0.00,,---,0.00,0.00,VWS V14.01,2013-01-08 12:05:00,
2013-01-08 06:10:00,35.2,26.4,29.74,South,178,22.0,27.0,70,0.00,,---,0.00,0.00,VWS V14.01,2013-01-08 12:10:00,
2013-01-08 06:15:00,35.0,26.2,29.74,South,175,22.0,25.0,70,0.00,,---,0.00,0.00,VWS V14.01,2013-01-08 12:15:00,
2013-01-08 06:20:00,34.9,26.5,29.74,South,189,20.0,24.0,71,0.00,,---,0.00,0.00,VWS V14.01,2013-01-08 12:20:00,
2013-01-08 06:25:00,34.6,26.5,29.74,South,182,24.0,27.0,72,0.00,,---,0.00,0.00,VWS V14.01,2013-01-08 12:25:00,
2013-01-08 06:30:00,34.6,26.5,29.75,South,186,17.0,28.0,72,0.00,,---,0.00,0.00,VWS V14.01,2013-01-08 12:30:00,
2013-01-08 06:35:00,34.6,26.5,29.75,SSE,158,13.0,24.0,72,0.00,,---,0.00,0.00,VWS V14.01,2013-01-08 12:35:00,
2013-01-08 06:40:00,34.3,26.6,29.75,South,186,16.0,25.0,73,0.00,,---,0.00,0.00,VWS V14.01,2013-01-08 12:40:00,
2013-01-08 06:45:00,34.3,26.6,29.75,SSE,168,24.0,26.0,73,0.00,,---,0.00,0.00,VWS V14.01,2013-01-08 12:45:00,
2013-01-08 06:46:00,34.3,26.6,29.75,South,176,16.0,25.0,73,0.00,,---,0.00,0.00,VWS V14.01,2013-01-08 12:46:00,
2013-01-08 06:50:00,34.3,26.9,29.75,SSW,192,16.0,25.0,74,0.00,,---,0.00,0.00,VWS V14.01,2013-01-08 12:50:00,
2013-01-08 06:51:00,34.4,27.0,29.75,SSW,209,21.0,24.0,74,0.00,,---,0.00,0.00,VWS V14.01,2013-01-08 12:51:00,
2013-01-08 06:55:00,34.6,27.2,29.75,SW,215,17.0,26.0,74,0.00,,---,0.00,0.00,VWS V14.01,2013-01-08 12:55:00,
2013-01-08 06:56:00,34.9,27.5,29.75,SSW,195,20.0,25.0,74,0.00,,---,0.00,0.00,VWS V14.01,2013-01-08 12:56:00,
2013-01-08 07:00:00,35.2,27.4,29.74,South,182,28.0,29.0,73,0.00,,---,0.00,0.00,VWS V14.01,2013-01-08 13:00:00,
2013-01-08 07:01:00,35.2,27.4,29.74,SW,219,20.0,28.0,73,0.00,,---,0.00,0.00,VWS V14.01,2013-01-08 13:01:00,
2013-01-08 07:05:00,35.2,27.4,29.74,SSW,195,20.0,28.0,73,0.00,,---,0.00,0.00,VWS V14.01,2013-01-08 13:05:00,
2013-01-08 07:06:00,35.2,27.4,29.74,South,172,17.0,25.0,73,0.00,,---,0.00,0.00,VWS V14.01,2013-01-08 13:06:00,
2013-01-08 07:10:00,35.2,27.4,29.74,SSW,210,19.0,29.0,73,0.00,,---,0.00,0.00,VWS V14.01,2013-01-08 13:10:00,
2013-01-08 07:11:00,35.3,27.5,29.74,South,191,20.0,27.0,73,0.00,,---,0.00,0.00,VWS V14.01,2013-01-08 13:11:00,
2013-01-08 07:15:00,35.5,27.7,29.75,South,181,22.0,27.0,73,0.00,,---,0.00,0.00,VWS V14.01,2013-01-08 13:15:00,
2013-01-08 07:16:00,35.5,27.7,29.75,SSW,192,22.0,28.0,73,0.00,,---,0.00,0.00,VWS V14.01,2013-01-08 13:16:00,
2013-01-08 07:20:00,35.3,27.2,29.75,South,179,25.0,28.0,72,0.00,,---,0.00,0.00,VWS V14.01,2013-01-08 13:20:00,
2013-01-08 07:21:00,35.2,27.4,29.75,SSW,195,25.0,27.0,73,0.00,,---,0.00,0.00,VWS V14.01,2013-01-08 13:21:00,
2013-01-08 07:25:00,35.2,27.4,29.75,South,186,17.0,29.0,73,0.00,,---,0.00,0.00,VWS V14.01,2013-01-08 13:25:00,
2013-01-08 07:26:00,35.0,27.6,29.75,South,186,19.0,29.0,74,0.00,,---,0.00,0.00,VWS V14.01,2013-01-08 13:26:00,
2013-01-08 07:30:00,35.0,27.6,29.74,SSW,209,28.0,29.0,74,0.00,,---,0.00,0.00,VWS V14.01,2013-01-08 13:30:00,
2013-01-08 07:31:00,35.2,27.8,29.74,SSW,193,18.0,29.0,74,0.00,,---,0.00,0.00,VWS V14.01,2013-01-08 13:31:00,
2013-01-08 07:35:00,35.2,27.8,29.74,South,181,20.0,29.0,74,0.00,,---,0.00,0.00,VWS V14.01,2013-01-08 13:35:00,
2013-01-08 07:36:00,35.0,27.6,29.74,South,182,19.0,30.0,74,0.00,,---,0.00,0.00,VWS V14.01,2013-01-08 13:36:00,
2013-01-08 07:40:00,35.0,27.6,29.74,South,188,20.0,30.0,74,0.00,,---,0.00,0.00,VWS V14.01,2013-01-08 13:40:00,
2013-01-08 07:41:00,34.9,27.8,29.74,SSW,196,27.0,28.0,75,0.00,,---,0.00,0.00,VWS V14.01,2013-01-08 13:41:00,
2013-01-08 07:45:00,34.7,27.6,29.74,South,189,20.0,28.0,75,0.00,,---,0.00,0.00,VWS V14.01,2013-01-08 13:45:00,
2013-01-08 07:47:00,34.7,27.6,29.74,WNW,295,27.0,29.0,75,0.00,,---,0.00,0.00,VWS V14.01,2013-01-08 13:47:00,
2013-01-08 07:50:00,34.7,27.6,29.74,South,182,22.0,29.0,75,0.00,,---,0.00,0.00,VWS V14.01,2013-01-08 13:50:00,
2013-01-08 07:52:00,34.7,27.6,29.74,SSW,196,19.0,28.0,75,0.00,,---,0.00,0.00,VWS V14.01,2013-01-08 13:52:00,
2013-01-08 07:55:00,34.7,27.6,29.74,SSW,199,25.0,28.0,75,0.00,,---,0.00,5.00,VWS V14.01,2013-01-08 13:55:00,
2013-01-08 07:57:00,34.7,27.9,29.74,SSW,196,22.0,28.0,76,0.00,,---,0.00,5.00,VWS V14.01,2013-01-08 13:57:00,
2013-01-08 08:00:00,34.7,27.9,29.74,South,181,21.0,28.0,76,0.00,,---,0.00,11.00,VWS V14.01,2013-01-08 14:00:00,
2013-01-08 08:02:00,34.7,27.9,29.74,South,184,20.0,28.0,76,0.00,,---,0.00,16.00,VWS V14.01,2013-01-08 14:02:00,
2013-01-08 08:05:00,34.7,27.9,29.74,SSW,208,18.0,28.0,76,0.00,,---,0.00,16.00,VWS V14.01,2013-01-08 14:05:00,
2013-01-08 08:07:00,34.7,27.9,29.74,South,179,21.0,26.0,76,0.00,,---,0.00,21.00,VWS V14.01,2013-01-08 14:07:00,
2013-01-08 08:10:00,34.7,27.9,29.74,South,186,17.0,26.0,76,0.00,,---,0.00,21.00,VWS V14.01,2013-01-08 14:10:00,
2013-01-08 08:12:00,35.0,27.9,29.74,SSW,193,22.0,26.0,75,0.00,,---,0.00,19.00,VWS V14.01,2013-01-08 14:12:00,
2013-01-08 08:15:00,35.2,28.1,29.75,South,171,22.0,28.0,75,0.00,,---,0.00,23.00,VWS V14.01,2013-01-08 14:15:00,
2013-01-08 08:17:00,35.3,28.2,29.75,SSW,193,19.0,25.0,75,0.00,,---,0.00,23.00,VWS V14.01,2013-01-08 14:17:00,
2013-01-08 08:20:00,35.5,28.4,29.75,SSW,193,17.0,25.0,75,0.00,,---,0.00,35.00,VWS V14.01,2013-01-08 14:20:00,
2013-01-08 08:22:00,35.6,28.5,29.75,South,182,24.0,26.0,75,0.00,,---,0.00,44.00,VWS V14.01,2013-01-08 14:22:00,
2013-01-08 08:25:00,35.8,28.3,29.75,South,188,11.0,28.0,74,0.00,,---,0.00,44.00,VWS V14.01,2013-01-08 14:25:00,
2013-01-08 08:27:00,35.9,28.4,29.75,SSE,167,25.0,29.0,74,0.00,,---,0.00,55.00,VWS V14.01,2013-01-08 14:27:00,
2013-01-08 08:30:00,35.9,28.4,29.74,South,184,21.0,29.0,74,0.00,,---,0.00,55.00,VWS V14.01,2013-01-08 14:30:00,
2013-01-08 08:32:00,36.0,28.5,29.74,South,185,24.0,27.0,74,0.00,,---,0.00,74.00,VWS V14.01,2013-01-08 14:32:00,
2013-01-08 08:35:00,36.0,28.5,29.74,South,171,24.0,27.0,74,0.00,,---,0.00,79.00,VWS V14.01,2013-01-08 14:35:00,
2013-01-08 08:38:00,36.2,28.7,29.74,SSW,192,17.0,35.0,74,0.00,,---,0.00,86.00,VWS V14.01,2013-01-08 14:38:00,
2013-01-08 08:40:00,36.3,28.5,29.74,South,172,22.0,35.0,73,0.00,,---,0.00,91.00,VWS V14.01,2013-01-08 14:40:00,
2013-01-08 08:43:00,36.5,28.7,29.74,SSE,161,14.0,29.0,73,0.00,,---,0.00,107.00,VWS V14.01,2013-01-08 14:43:00,
2013-01-08 08:45:00,36.6,28.8,29.74,SSW,210,25.0,29.0,73,0.00,,---,0.00,111.00,VWS V14.01,2013-01-08 14:45:00,
2013-01-08 08:48:00,36.8,29.0,29.74,SSW,192,17.0,30.0,73,0.00,,---,0.00,116.00,VWS V14.01,2013-01-08 14:48:00,
2013-01-08 08:50:00,36.9,28.7,29.74,SW,217,17.0,30.0,72,0.00,,---,0.00,118.00,VWS V14.01,2013-01-08 14:50:00,
2013-01-08 08:53:00,37.0,28.8,29.74,South,186,25.0,30.0,72,0.00,,---,0.00,127.00,VWS V14.01,2013-01-08 14:53:00,
2013-01-08 08:55:00,37.0,28.8,29.74,South,186,22.0,30.0,72,0.00,,---,0.00,134.00,VWS V14.01,2013-01-08 14:55:00,
2013-01-08 08:58:00,37.2,29.0,29.74,South,181,22.0,30.0,72,0.00,,---,0.00,143.00,VWS V14.01,2013-01-08 14:58:00,
2013-01-08 09:00:00,37.3,29.1,29.75,SSE,154,27.0,30.0,72,0.00,,---,0.00,139.00,VWS V14.01,2013-01-08 15:00:00,
2013-01-08 09:03:00,37.6,29.4,29.75,South,176,20.0,29.0,72,0.00,,---,0.00,151.00,VWS V14.01,2013-01-08 15:03:00,
2013-01-08 09:05:00,37.6,29.1,29.75,South,188,25.0,29.0,71,0.00,,---,0.00,155.00,VWS V14.01,2013-01-08 15:05:00,
2013-01-08 09:08:00,37.8,29.3,29.75,South,174,19.0,28.0,71,0.00,,---,0.00,158.00,VWS V14.01,2013-01-08 15:08:00,
2013-01-08 09:10:00,37.9,29.4,29.75,South,189,25.0,28.0,71,0.00,,---,0.00,151.00,VWS V14.01,2013-01-08 15:10:00,
2013-01-08 09:13:00,38.0,29.1,29.76,SSW,196,16.0,29.0,70,0.00,,---,0.00,169.00,VWS V14.01,2013-01-08 15:13:00,
2013-01-08 09:15:00,38.2,29.3,29.76,South,182,21.0,29.0,70,0.00,,---,0.00,172.00,VWS V14.01,2013-01-08 15:15:00,
2013-01-08 09:18:00,38.3,29.4,29.76,South,189,22.0,32.0,70,0.00,,---,0.00,181.00,VWS V14.01,2013-01-08 15:18:00,
2013-01-08 09:20:00,38.3,29.4,29.76,South,174,18.0,32.0,70,0.00,,---,0.00,183.00,VWS V14.01,2013-01-08 15:20:00,
2013-01-08 09:24:00,38.6,29.3,29.76,SSW,193,26.0,33.0,69,0.00,,---,0.00,194.00,VWS V14.01,2013-01-08 15:24:00,
2013-01-08 09:25:00,38.6,29.3,29.76,South,172,25.0,33.0,69,0.00,,---,0.00,195.00,VWS V14.01,2013-01-08 15:25:00,
2013-01-08 09:29:00,38.9,29.6,29.75,South,188,26.0,33.0,69,0.00,,---,0.00,208.00,VWS V14.01,2013-01-08 15:29:00,
2013-01-08 09:30:00,38.9,29.6,29.75,South,179,17.0,33.0,69,0.00,,---,0.00,208.00,VWS V14.01,2013-01-08 15:30:00,
2013-01-08 09:34:00,39.1,29.5,29.75,SW,217,26.0,33.0,68,0.00,,---,0.00,218.00,VWS V14.01,2013-01-08 15:34:00,
2013-01-08 09:35:00,39.1,29.4,29.75,SSW,193,24.0,33.0,68,0.00,,---,0.00,218.00,VWS V14.01,2013-01-08 15:35:00,
2013-01-08 09:39:00,39.3,29.6,29.75,SW,217,30.0,31.0,68,0.00,,---,0.00,229.00,VWS V14.01,2013-01-08 15:39:00,
2013-01-08 09:40:00,39.3,29.6,29.75,SW,217,30.0,31.0,68,0.00,,---,0.00,229.00,VWS V14.01,2013-01-08 15:40:00,
2013-01-08 09:44:00,39.6,29.6,29.76,SSW,193,27.0,27.0,67,0.00,,---,0.00,246.00,VWS V14.01,2013-01-08 15:44:00,
2013-01-08 09:45:00,39.6,29.6,29.76,SSW,213,26.0,33.0,67,0.00,,---,0.00,246.00,VWS V14.01,2013-01-08 15:45:00,
2013-01-08 09:49:00,40.1,29.7,29.76,SW,224,24.0,28.0,66,0.00,,---,0.00,259.00,VWS V14.01,2013-01-08 15:49:00,
2013-01-08 09:50:00,40.1,29.7,29.76,SW,236,28.0,32.0,66,0.00,,---,0.00,259.00,VWS V14.01,2013-01-08 15:50:00,
2013-01-08 09:54:00,40.5,29.7,29.76,SW,220,22.0,29.0,65,0.00,,---,0.00,223.00,VWS V14.01,2013-01-08 15:54:00,
2013-01-08 09:55:00,40.5,29.7,29.76,SW,223,26.0,32.0,65,0.00,,---,0.00,223.00,VWS V14.01,2013-01-08 15:55:00,
2013-01-08 09:59:00,40.9,30.1,29.77,SW,220,16.0,22.0,65,0.00,,---,0.00,282.00,VWS V14.01,2013-01-08 15:59:00,
2013-01-08 10:00:00,40.9,30.1,29.77,SSW,213,22.0,29.0,65,0.00,,---,0.00,280.00,VWS V14.01,2013-01-08 16:00:00,
2013-01-08 10:05:00,41.3,30.1,29.77,SW,219,27.0,30.0,64,0.00,,---,0.00,289.00,VWS V14.01,2013-01-08 16:05:00,
2013-01-08 10:10:00,41.8,29.8,29.77,SW,226,30.0,31.0,62,0.00,,---,0.00,296.00,VWS V14.01,2013-01-08 16:10:00,
2013-01-08 10:15:00,41.9,29.9,29.77,SW,219,25.0,25.0,62,0.00,,---,0.00,304.00,VWS V14.01,2013-01-08 16:15:00,
2013-01-08 10:20:00,42.3,29.8,29.77,WSW,246,24.0,24.0,61,0.00,,---,0.00,315.00,VWS V14.01,2013-01-08 16:20:00,
2013-01-08 10:25:00,42.3,29.8,29.77,SW,233,24.0,26.0,61,0.00,,---,0.00,324.00,VWS V14.01,2013-01-08 16:25:00,
2013-01-08 10:30:00,42.5,30.0,29.78,South,188,17.0,27.0,61,0.00,,---,0.00,334.00,VWS V14.01,2013-01-08 16:30:00,
2013-01-08 10:35:00,42.6,30.1,29.78,SW,223,15.0,26.0,61,0.00,,---,0.00,345.00,VWS V14.01,2013-01-08 16:35:00,
2013-01-08 10:40:00,42.9,30.4,29.78,WSW,246,19.0,31.0,61,0.00,,---,0.00,359.00,VWS V14.01,2013-01-08 16:40:00,
2013-01-08 10:45:00,43.2,30.3,29.78,SW,220,20.0,22.0,60,0.00,,---,0.00,370.00,VWS V14.01,2013-01-08 16:45:00,
2013-01-08 10:50:00,43.5,30.5,29.78,SW,224,13.0,33.0,60,0.00,,---,0.00,373.00,VWS V14.01,2013-01-08 16:50:00,
2013-01-08 10:51:00,43.5,30.5,29.78,SW,217,13.0,22.0,60,0.00,,---,0.00,375.00,VWS V14.01,2013-01-08 16:51:00,
2013-01-08 10:55:00,43.9,30.9,29.78,WSW,239,16.0,25.0,60,0.00,,---,0.00,382.00,VWS V14.01,2013-01-08 16:55:00,
2013-01-08 10:56:00,43.9,30.5,29.78,SW,233,21.0,27.0,59,0.00,,---,0.00,380.00,VWS V14.01,2013-01-08 16:56:00,
2013-01-08 11:00:00,44.2,30.8,29.77,SW,219,18.0,27.0,59,0.00,,---,0.00,389.00,VWS V14.01,2013-01-08 17:00:00,
2013-01-08 11:01:00,44.2,30.8,29.77,SW,223,17.0,26.0,59,0.00,,---,0.00,389.00,VWS V14.01,2013-01-08 17:01:00,
2013-01-08 11:05:00,44.3,30.5,29.77,SW,219,21.0,26.0,58,0.00,,---,0.00,396.00,VWS V14.01,2013-01-08 17:05:00,
2013-01-08 11:06:00,44.5,30.7,29.77,WSW,237,24.0,26.0,58,0.00,,---,0.00,399.00,VWS V14.01,2013-01-08 17:06:00,
2013-01-08 11:10:00,44.8,30.5,29.77,SSW,209,18.0,27.0,57,0.00,,---,0.00,394.00,VWS V14.01,2013-01-08 17:10:00,
2013-01-08 11:11:00,44.9,30.6,29.77,WSW,237,20.0,24.0,57,0.00,,---,0.00,398.00,VWS V14.01,2013-01-08 17:11:00,
2013-01-08 11:15:00,45.1,30.4,29.78,SW,229,22.0,25.0,56,0.00,,---,0.00,401.00,VWS V14.01,2013-01-08 17:15:00,
2013-01-08 11:16:00,45.1,30.4,29.78,SW,234,19.0,25.0,56,0.00,,---,0.00,403.00,VWS V14.01,2013-01-08 17:16:00,
2013-01-08 11:20:00,44.9,30.2,29.78,SW,233,17.0,26.0,56,0.00,,---,0.00,406.00,VWS V14.01,2013-01-08 17:20:00,
2013-01-08 11:21:00,44.9,30.6,29.78,SW,232,21.0,24.0,57,0.00,,---,0.00,408.00,VWS V14.01,2013-01-08 17:21:00,
2013-01-08 11:25:00,45.4,31.1,29.78,SW,234,14.0,24.0,57,0.00,,---,0.00,413.00,VWS V14.01,2013-01-08 17:25:00,
2013-01-08 11:26:00,45.5,30.7,29.78,SW,224,16.0,19.0,56,0.00,,---,0.00,415.00,VWS V14.01,2013-01-08 17:26:00,
2013-01-08 11:30:00,45.7,30.9,29.78,WSW,254,14.0,21.0,56,0.00,,---,0.00,419.00,VWS V14.01,2013-01-08 17:30:00,
2013-01-08 11:31:00,45.8,31.0,29.78,SW,232,12.0,20.0,56,0.00,,---,0.00,417.00,VWS V14.01,2013-01-08 17:31:00,
2013-01-08 11:35:00,46.0,30.8,29.78,SW,229,22.0,22.0,55,0.00,,---,0.00,417.00,VWS V14.01,2013-01-08 17:35:00,
2013-01-08 11:36:00,46.1,30.9,29.78,SW,230,15.0,25.0,55,0.00,,---,0.00,60.00,VWS V14.01,2013-01-08 17:36:00,
2013-01-08 11:40:00,46.4,31.1,29.78,SW,233,19.0,25.0,55,0.00,,---,0.00,53.00,VWS V14.01,2013-01-08 17:40:00,
2013-01-08 11:42:00,46.4,30.7,29.78,SW,217,18.0,24.0,54,0.00,,---,0.00,56.00,VWS V14.01,2013-01-08 17:42:00,
2013-01-08 11:45:00,46.8,31.0,29.77,SW,230,21.0,24.0,54,0.00,,---,0.00,58.00,VWS V14.01,2013-01-08 17:45:00,
2013-01-08 11:47:00,47.0,30.8,29.77,SW,220,17.0,22.0,53,0.00,,---,0.00,58.00,VWS V14.01,2013-01-08 17:47:00,
2013-01-08 11:50:00,47.0,30.8,29.77,WSW,241,12.0,22.0,53,0.00,,---,0.00,58.00,VWS V14.01,2013-01-08 17:50:00,
2013-01-08 11:52:00,47.1,30.9,29.77,WSW,241,16.0,19.0,53,0.00,,---,0.00,120.00,VWS V14.01,2013-01-08 17:52:00,
2013-01-08 11:55:00,47.4,31.6,29.77,WSW,239,20.0,22.0,54,0.00,,---,0.00,81.00,VWS V14.01,2013-01-08 17:55:00,
2013-01-08 11:57:00,47.9,31.1,29.77,WSW,241,18.0,22.0,52,0.00,,---,0.00,127.00,VWS V14.01,2013-01-08 17:57:00,
2013-01-08 12:00:00,48.2,31.9,29.76,WSW,240,17.0,25.0,53,0.00,,---,0.00,450.00,VWS V14.01,2013-01-08 18:00:00,
2013-01-08 12:02:00,48.2,30.9,29.76,WSW,246,25.0,28.0,51,0.00,,---,0.00,403.00,VWS V14.01,2013-01-08 18:02:00,
2013-01-08 12:05:00,48.2,30.5,29.76,WSW,253,17.0,28.0,50,0.00,,---,0.00,403.00,VWS V14.01,2013-01-08 18:05:00,
2013-01-08 12:07:00,48.5,30.7,29.76,SW,236,24.0,26.0,50,0.00,,---,0.00,53.00,VWS V14.01,2013-01-08 18:07:00,
2013-01-08 12:10:00,48.5,30.7,29.76,SW,233,19.0,27.0,50,0.00,,---,0.00,56.00,VWS V14.01,2013-01-08 18:10:00,
2013-01-08 12:12:00,48.6,30.3,29.76,WSW,240,22.0,25.0,49,0.00,,---,0.00,53.00,VWS V14.01,2013-01-08 18:12:00,
2013-01-08 12:15:00,48.6,30.3,29.76,SW,222,14.0,25.0,49,0.00,,---,0.00,55.00,VWS V14.01,2013-01-08 18:15:00,
2013-01-08 12:17:00,48.6,30.8,29.76,SW,223,17.0,24.0,50,0.00,,---,0.00,95.00,VWS V14.01,2013-01-08 18:17:00,
2013-01-08 12:20:00,48.6,30.3,29.76,WSW,244,21.0,26.0,49,0.00,,---,0.00,95.00,VWS V14.01,2013-01-08 18:20:00,
2013-01-08 12:22:00,48.8,30.5,29.76,WSW,237,17.0,26.0,49,0.00,,---,0.00,350.00,VWS V14.01,2013-01-08 18:22:00,
2013-01-08 12:25:00,48.8,30.5,29.76,WSW,239,18.0,26.0,49,0.00,,---,0.00,350.00,VWS V14.01,2013-01-08 18:25:00,
2013-01-08 12:27:00,49.1,30.8,29.76,WSW,240,16.0,20.0,49,0.00,,---,0.00,56.00,VWS V14.01,2013-01-08 18:27:00,
2013-01-08 12:30:00,49.1,30.8,29.75,SW,224,15.0,20.0,49,0.00,,---,0.00,53.00,VWS V14.01,2013-01-08 18:30:00,
2013-01-08 12:33:00,49.4,30.5,29.75,WSW,247,16.0,22.0,48,0.00,,---,0.00,51.00,VWS V14.01,2013-01-08 18:33:00,
2013-01-08 12:35:00,49.4,30.5,29.75,SW,234,17.0,22.0,48,0.00,,---,0.00,51.00,VWS V14.01,2013-01-08 18:35:00,
2013-01-08 12:38:00,49.6,30.7,29.75,SW,216,11.0,22.0,48,0.00,,---,0.00,51.00,VWS V14.01,2013-01-08 18:38:00,
2013-01-08 12:40:00,49.8,30.9,29.75,SW,234,20.0,22.0,48,0.00,,---,0.00,51.00,VWS V14.01,2013-01-08 18:40:00,
2013-01-08 12:43:00,49.9,30.5,29.75,WSW,244,21.0,24.0,47,0.00,,---,0.00,56.00,VWS V14.01,2013-01-08 18:43:00,
2013-01-08 12:45:00,49.9,30.5,29.74,WSW,241,11.0,24.0,47,0.00,,---,0.00,56.00,VWS V14.01,2013-01-08 18:45:00,
2013-01-08 12:48:00,50.2,30.2,29.74,WSW,237,20.0,27.0,46,0.00,,---,0.00,58.00,VWS V14.01,2013-01-08 18:48:00,
2013-01-08 12:50:00,50.4,30.4,29.74,WSW,240,25.0,27.0,46,0.00,,---,0.00,67.00,VWS V14.01,2013-01-08 18:50:00,
2013-01-08 12:53:00,50.1,30.1,29.74,SW,215,19.0,25.0,46,0.00,,---,0.00,125.00,VWS V14.01,2013-01-08 18:53:00,
2013-01-08 12:55:00,50.1,30.7,29.74,SW,224,22.0,25.0,47,0.00,,---,0.00,125.00,VWS V14.01,2013-01-08 18:55:00,
2013-01-08 12:58:00,50.5,31.0,29.73,SW,223,16.0,22.0,47,0.00,,---,0.00,459.00,VWS V14.01,2013-01-08 18:58:00,
2013-01-08 13:00:00,50.7,30.7,29.73,SW,230,16.0,22.0,46,0.00,,---,0.00,457.00,VWS V14.01,2013-01-08 19:00:00,
2013-01-08 13:03:00,51.1,30.5,29.73,SW,232,18.0,21.0,45,0.00,,---,0.00,315.00,VWS V14.01,2013-01-08 19:03:00,
2013-01-08 13:05:00,51.1,30.5,29.73,West,268,24.0,24.0,45,0.00,,---,0.00,315.00,VWS V14.01,2013-01-08 19:05:00,
2013-01-08 13:08:00,51.1,30.0,29.73,SW,220,18.0,24.0,44,0.00,,---,0.00,72.00,VWS V14.01,2013-01-08 19:08:00,
2013-01-08 13:10:00,51.1,30.0,29.73,SW,222,19.0,24.0,44,0.00,,---,0.00,79.00,VWS V14.01,2013-01-08 19:10:00,
2013-01-08 13:13:00,51.4,30.2,29.73,SW,217,21.0,26.0,44,0.00,,---,0.00,144.00,VWS V14.01,2013-01-08 19:13:00,
2013-01-08 13:15:00,51.4,30.2,29.73,SW,224,15.0,26.0,44,0.00,,---,0.00,144.00,VWS V14.01,2013-01-08 19:15:00,
2013-01-08 13:19:00,51.6,29.9,29.73,SW,222,14.0,24.0,43,0.00,,---,0.00,445.00,VWS V14.01,2013-01-08 19:19:00,
2013-01-08 13:20:00,51.6,29.9,29.73,SW,216,14.0,24.0,43,0.00,,---,0.00,445.00,VWS V14.01,2013-01-08 19:20:00,
2013-01-08 13:24:00,51.7,29.9,29.73,SSW,210,21.0,28.0,43,0.00,,---,0.00,431.00,VWS V14.01,2013-01-08 19:24:00,
2013-01-08 13:25:00,51.7,29.9,29.73,SW,215,22.0,28.0,43,0.00,,---,0.00,431.00,VWS V14.01,2013-01-08 19:25:00,
2013-01-08 13:29:00,51.7,29.9,29.72,WSW,247,17.0,31.0,43,0.00,,---,0.00,422.00,VWS V14.01,2013-01-08 19:29:00,
2013-01-08 13:30:00,51.7,29.9,29.72,SW,219,24.0,31.0,43,0.00,,---,0.00,422.00,VWS V14.01,2013-01-08 19:30:00,
2013-01-08 13:34:00,51.9,30.1,29.72,SW,216,21.0,24.0,43,0.00,,---,0.00,370.00,VWS V14.01,2013-01-08 19:34:00,
2013-01-08 13:35:00,51.9,30.1,29.72,SSW,210,19.0,24.0,43,0.00,,---,0.00,370.00,VWS V14.01,2013-01-08 19:35:00,
2013-01-08 13:39:00,52.0,30.2,29.72,SW,227,18.0,19.0,43,0.00,,---,0.00,90.00,VWS V14.01,2013-01-08 19:39:00,
2013-01-08 13:40:00,52.0,30.2,29.72,SSW,202,16.0,19.0,43,0.00,,---,0.00,90.00,VWS V14.01,2013-01-08 19:40:00,
2013-01-08 13:44:00,52.5,31.2,29.72,SW,217,18.0,19.0,44,0.00,,---,0.00,77.00,VWS V14.01,2013-01-08 19:44:00,
2013-01-08 13:45:00,52.5,31.2,29.72,SW,217,18.0,19.0,44,0.00,,---,0.00,77.00,VWS V14.01,2013-01-08 19:45:00,
2013-01-08 13:49:00,52.6,30.8,29.72,SW,222,14.0,26.0,43,0.00,,---,0.00,97.00,VWS V14.01,2013-01-08 19:49:00,
2013-01-08 13:50:00,52.6,30.8,29.72,SW,222,14.0,26.0,43,0.00,,---,0.00,97.00,VWS V14.01,2013-01-08 19:50:00,
2013-01-08 13:54:00,52.9,31.0,29.72,SW,233,11.0,21.0,43,0.00,,---,0.00,421.00,VWS V14.01,2013-01-08 19:54:00,
2013-01-08 13:55:00,52.9,31.0,29.72,SW,233,11.0,21.0,43,0.00,,---,0.00,421.00,VWS V14.01,2013-01-08 19:55:00,
2013-01-08 13:59:00,52.9,30.5,29.73,SW,229,18.0,21.0,42,0.00,,---,0.00,410.00,VWS V14.01,2013-01-08 19:59:00,
2013-01-08 14:00:00,52.9,30.5,29.73,SW,229,18.0,21.0,42,0.00,,---,0.00,410.00,VWS V14.01,2013-01-08 20:00:00,
2013-01-08 14:04:00,52.6,30.8,29.73,SW,230,15.0,24.0,43,0.00,,---,0.00,370.00,VWS V14.01,2013-01-08 20:04:00,
2013-01-08 14:05:00,52.6,30.8,29.73,SW,230,15.0,24.0,43,0.00,,---,0.00,370.00,VWS V14.01,2013-01-08 20:05:00,
2013-01-08 14:09:00,53.1,30.6,29.73,WSW,253,22.0,24.0,42,0.00,,---,0.00,387.00,VWS V14.01,2013-01-08 20:09:00,
2013-01-08 14:10:00,53.1,30.6,29.73,WSW,253,22.0,24.0,42,0.00,,---,0.00,387.00,VWS V14.01,2013-01-08 20:10:00,
2013-01-08 14:14:00,53.1,30.0,29.73,SW,229,11.0,22.0,41,0.00,,---,0.00,382.00,VWS V14.01,2013-01-08 20:14:00,
2013-01-08 14:15:00,53.1,30.0,29.73,SW,229,11.0,22.0,41,0.00,,---,0.00,382.00,VWS V14.01,2013-01-08 20:15:00,
2013-01-08 14:19:00,53.2,30.7,29.73,WSW,241,16.0,20.0,42,0.00,,---,0.00,375.00,VWS V14.01,2013-01-08 20:19:00,
2013-01-08 14:20:00,53.2,30.7,29.73,WSW,241,16.0,20.0,42,0.00,,---,0.00,375.00,VWS V14.01,2013-01-08 20:20:00,
2013-01-08 14:24:00,53.1,30.6,29.73,SW,232,14.0,20.0,42,0.00,,---,0.00,368.00,VWS V14.01,2013-01-08 20:24:00,
2013-01-08 14:25:00,53.1,30.6,29.73,SW,232,14.0,20.0,42,0.00,,---,0.00,368.00,VWS V14.01,2013-01-08 20:25:00,
2013-01-08 14:29:00,53.5,31.0,29.73,WSW,258,14.0,19.0,42,0.00,,---,0.00,362.00,VWS V14.01,2013-01-08 20:29:00,
2013-01-08 14:30:00,53.5,31.0,29.73,WSW,258,14.0,19.0,42,0.00,,---,0.00,362.00,VWS V14.01,2013-01-08 20:30:00,
2013-01-08 14:34:00,53.8,31.3,29.73,WSW,243,17.0,20.0,42,0.00,,---,0.00,354.00,VWS V14.01,2013-01-08 20:34:00,
2013-01-08 14:35:00,53.8,31.3,29.73,WSW,243,17.0,20.0,42,0.00,,---,0.00,354.00,VWS V14.01,2013-01-08 20:35:00,
2013-01-08 14:39:00,53.8,30.7,29.73,West,260,16.0,24.0,41,0.00,,---,0.00,345.00,VWS V14.01,2013-01-08 20:39:00,
2013-01-08 14:40:00,53.8,30.7,29.73,West,260,16.0,24.0,41,0.00,,---,0.00,345.00,VWS V14.01,2013-01-08 20:40:00,
2013-01-08 14:44:00,53.8,30.7,29.74,West,260,13.0,18.0,41,0.00,,---,0.00,343.00,VWS V14.01,2013-01-08 20:44:00,
2013-01-08 14:45:00,53.8,30.7,29.74,West,260,13.0,18.0,41,0.00,,---,0.00,343.00,VWS V14.01,2013-01-08 20:45:00,
2013-01-08 14:49:00,53.9,30.8,29.74,WSW,248,14.0,19.0,41,0.00,,---,0.00,334.00,VWS V14.01,2013-01-08 20:49:00,
2013-01-08 14:50:00,53.9,30.8,29.74,WSW,248,14.0,19.0,41,0.00,,---,0.00,334.00,VWS V14.01,2013-01-08 20:50:00,
2013-01-08 14:54:00,53.9,31.4,29.74,WSW,247,14.0,16.0,42,0.00,,---,0.00,329.00,VWS V14.01,2013-01-08 20:54:00,
2013-01-08 14:55:00,53.9,31.4,29.74,West,261,16.0,16.0,42,0.00,,---,0.00,329.00,VWS V14.01,2013-01-08 20:55:00,
2013-01-08 14:59:00,54.1,30.9,29.75,WSW,253,14.0,14.0,41,0.00,,---,0.00,338.00,VWS V14.01,2013-01-08 20:59:00,
2013-01-08 15:00:00,54.1,30.9,29.75,WSW,254,12.0,16.0,41,0.00,,---,0.00,338.00,VWS V14.01,2013-01-08 21:00:00,
2013-01-08 15:04:00,53.5,32.1,29.75,WNW,291,13.0,17.0,44,0.00,,---,0.00,329.00,VWS V14.01,2013-01-08 21:04:00,
2013-01-08 15:05:00,53.5,32.1,29.75,NW,308,16.0,18.0,44,0.00,,---,0.00,329.00,VWS V14.01,2013-01-08 21:05:00,
2013-01-08 15:09:00,52.8,32.6,29.75,NW,306,13.0,14.0,46,0.00,,---,0.00,303.00,VWS V14.01,2013-01-08 21:09:00,
2013-01-08 15:10:00,52.8,32.6,29.75,WNW,298,11.0,17.0,46,0.00,,---,0.00,303.00,VWS V14.01,2013-01-08 21:10:00,
2013-01-08 15:14:00,52.2,32.1,29.76,WNW,289,11.0,11.0,46,0.00,,---,0.00,282.00,VWS V14.01,2013-01-08 21:14:00,
2013-01-08 15:15:00,52.3,32.2,29.76,West,277,8.0,17.0,46,0.00,,---,0.00,282.00,VWS V14.01,2013-01-08 21:15:00,
2013-01-08 15:19:00,52.0,32.4,29.76,West,263,5.0,8.0,47,0.00,,---,0.00,269.00,VWS V14.01,2013-01-08 21:19:00,
2013-01-08 15:20:00,52.0,32.4,29.76,West,264,8.0,14.0,47,0.00,,---,0.00,269.00,VWS V14.01,2013-01-08 21:20:00,
2013-01-08 15:25:00,52.2,32.1,29.76,West,263,13.0,14.0,46,0.00,,---,0.00,257.00,VWS V14.01,2013-01-08 21:25:00,
2013-01-08 15:30:00,52.0,31.9,29.77,West,268,8.0,10.0,46,0.00,,---,0.00,245.00,VWS V14.01,2013-01-08 21:30:00,
2013-01-08 15:35:00,52.2,32.1,29.77,WSW,253,8.0,12.0,46,0.00,,---,0.00,192.00,VWS V14.01,2013-01-08 21:35:00,
2013-01-08 15:40:00,52.3,32.2,29.77,WSW,243,10.0,11.0,46,0.00,,---,0.00,230.00,VWS V14.01,2013-01-08 21:40:00,
2013-01-08 15:45:00,52.3,32.2,29.78,West,260,8.0,13.0,46,0.00,,---,0.00,220.00,VWS V14.01,2013-01-08 21:45:00,
2013-01-08 15:50:00,52.5,32.3,29.78,WSW,254,10.0,12.0,46,0.00,,---,0.00,206.00,VWS V14.01,2013-01-08 21:50:00,
2013-01-08 15:55:00,52.6,32.4,29.78,West,264,9.0,12.0,46,0.00,,---,0.00,195.00,VWS V14.01,2013-01-08 21:55:00,
2013-01-08 16:00:00,52.8,32.1,29.79,West,265,10.0,14.0,45,0.00,,---,0.00,183.00,VWS V14.01,2013-01-08 22:00:00,
2013-01-08 16:05:00,52.6,32.4,29.79,WNW,287,10.0,12.0,46,0.00,,---,0.00,171.00,VWS V14.01,2013-01-08 22:05:00,
2013-01-08 16:10:00,52.6,31.9,29.79,West,275,12.0,16.0,45,0.00,,---,0.00,148.00,VWS V14.01,2013-01-08 22:10:00,
2013-01-08 16:15:00,52.5,32.3,29.80,WNW,292,8.0,16.0,46,0.00,,---,0.00,141.00,VWS V14.01,2013-01-08 22:15:00,
2013-01-08 16:16:00,52.5,32.3,29.80,WNW,289,8.0,12.0,46,0.00,,---,0.00,137.00,VWS V14.01,2013-01-08 22:16:00,
2013-01-08 16:20:00,52.5,31.8,29.80,West,270,11.0,12.0,45,0.00,,---,0.00,128.00,VWS V14.01,2013-01-08 22:20:00,
2013-01-08 16:21:00,52.3,31.6,29.80,West,267,8.0,13.0,45,0.00,,---,0.00,125.00,VWS V14.01,2013-01-08 22:21:00,
2013-01-08 16:25:00,52.3,31.6,29.80,West,275,10.0,14.0,45,0.00,,---,0.00,116.00,VWS V14.01,2013-01-08 22:25:00,
2013-01-08 16:26:00,52.3,31.6,29.80,West,270,12.0,13.0,45,0.00,,---,0.00,113.00,VWS V14.01,2013-01-08 22:26:00,
2013-01-08 16:30:00,52.2,31.5,29.81,WNW,292,13.0,15.0,45,0.00,,---,0.00,104.00,VWS V14.01,2013-01-08 22:30:00,
2013-01-08 16:31:00,52.0,31.3,29.81,NW,305,11.0,13.0,45,0.00,,---,0.00,100.00,VWS V14.01,2013-01-08 22:31:00,
2013-01-08 16:35:00,51.7,31.6,29.81,WNW,294,9.0,13.0,46,0.00,,---,0.00,91.00,VWS V14.01,2013-01-08 22:35:00,
2013-01-08 16:36:00,51.6,32.0,29.81,West,277,10.0,12.0,47,0.00,,---,0.00,88.00,VWS V14.01,2013-01-08 22:36:00,
2013-01-08 16:40:00,51.3,32.3,29.81,WNW,288,10.0,12.0,48,0.00,,---,0.00,79.00,VWS V14.01,2013-01-08 22:40:00,
2013-01-08 16:41:00,51.3,32.3,29.81,WNW,288,10.0,11.0,48,0.00,,---,0.00,81.00,VWS V14.01,2013-01-08 22:41:00,
2013-01-08 16:45:00,51.0,32.5,29.82,WNW,292,7.0,11.0,49,0.00,,---,0.00,76.00,VWS V14.01,2013-01-08 22:45:00,
2013-01-08 16:46:00,50.7,32.8,29.82,WNW,289,8.0,10.0,50,0.00,,---,0.00,70.00,VWS V14.01,2013-01-08 22:46:00,
2013-01-08 16:50:00,50.5,32.6,29.82,NW,304,9.0,12.0,50,0.00,,---,0.00,60.00,VWS V14.01,2013-01-08 22:50:00,
2013-01-08 16:51:00,50.2,32.3,29.82,NW,320,12.0,12.0,50,0.00,,---,0.00,62.00,VWS V14.01,2013-01-08 22:51:00,
2013-01-08 16:55:00,50.1,32.2,29.82,WNW,287,7.0,12.0,50,0.00,,---,0.00,51.00,VWS V14.01,2013-01-08 22:55:00,
2013-01-08 16:56:00,49.8,31.9,29.82,WNW,288,7.0,10.0,50,0.00,,---,0.00,48.00,VWS V14.01,2013-01-08 22:56:00,
2013-01-08 17:00:00,49.4,31.6,29.83,West,281,9.0,11.0,50,0.00,,---,0.00,42.00,VWS V14.01,2013-01-08 23:00:00,
2013-01-08 17:01:00,49.1,31.3,29.83,WNW,284,7.0,11.0,50,0.00,,---,0.00,35.00,VWS V14.01,2013-01-08 23:01:00,
2013-01-08 17:05:00,48.9,31.6,29.83,WNW,285,6.0,11.0,51,0.00,,---,0.00,32.00,VWS V14.01,2013-01-08 23:05:00,
2013-01-08 17:06:00,48.6,31.3,29.83,WNW,282,5.0,8.0,51,0.00,,---,0.00,23.00,VWS V14.01,2013-01-08 23:06:00,
2013-01-08 17:10:00,48.5,31.2,29.83,WNW,296,8.0,9.0,51,0.00,,---,0.00,21.00,VWS V14.01,2013-01-08 23:10:00,
2013-01-08 17:11:00,48.2,31.4,29.83,WNW,301,11.0,11.0,52,0.00,,---,0.00,18.00,VWS V14.01,2013-01-08 23:11:00,
2013-01-08 17:15:00,47.7,31.4,29.84,WNW,302,10.0,11.0,53,0.00,,---,0.00,14.00,VWS V14.01,2013-01-08 23:15:00,
2013-01-08 17:17:00,47.3,31.0,29.84,WNW,287,11.0,12.0,53,0.00,,---,0.00,12.00,VWS V14.01,2013-01-08 23:17:00,
2013-01-08 17:20:00,47.0,31.2,29.84,WNW,285,8.0,12.0,54,0.00,,---,0.00,11.00,VWS V14.01,2013-01-08 23:20:00,
2013-01-08 17:22:00,46.4,31.1,29.84,WNW,287,7.0,11.0,55,0.00,,---,0.00,11.00,VWS V14.01,2013-01-08 23:22:00,
2013-01-08 17:25:00,46.1,30.9,29.84,WNW,287,10.0,11.0,55,0.00,,---,0.00,0.00,VWS V14.01,2013-01-08 23:25:00,
2013-01-08 17:27:00,45.7,30.9,29.84,NW,308,10.0,11.0,56,0.00,,---,0.00,0.00,VWS V14.01,2013-01-08 23:27:00,
2013-01-08 17:30:00,45.4,30.6,29.86,WNW,295,11.0,12.0,56,0.00,,---,0.00,0.00,VWS V14.01,2013-01-08 23:30:00,
2013-01-08 17:32:00,45.1,30.8,29.86,WNW,294,7.0,11.0,57,0.00,,---,0.00,0.00,VWS V14.01,2013-01-08 23:32:00,
2013-01-08 17:35:00,44.8,30.9,29.86,WNW,295,8.0,11.0,58,0.00,,---,0.00,0.00,VWS V14.01,2013-01-08 23:35:00,
2013-01-08 17:37:00,44.5,30.7,29.86,WNW,301,8.0,12.0,58,0.00,,---,0.00,0.00,VWS V14.01,2013-01-08 23:37:00,
2013-01-08 17:40:00,44.2,30.4,29.86,WNW,291,8.0,12.0,58,0.00,,---,0.00,0.00,VWS V14.01,2013-01-08 23:40:00,
2013-01-08 17:42:00,43.9,30.5,29.86,WNW,292,6.0,11.0,59,0.00,,---,0.00,0.00,VWS V14.01,2013-01-08 23:42:00,
2013-01-08 17:45:00,43.8,30.4,29.87,WNW,291,7.0,11.0,59,0.00,,---,0.00,0.00,VWS V14.01,2013-01-08 23:45:00,
2013-01-08 17:47:00,43.5,30.5,29.87,WNW,295,9.0,12.0,60,0.00,,---,0.00,0.00,VWS V14.01,2013-01-08 23:47:00,
2013-01-08 17:50:00,43.3,30.4,29.87,WNW,287,8.0,12.0,60,0.00,,---,0.00,0.00,VWS V14.01,2013-01-08 23:50:00,
2013-01-08 17:52:00,43.1,30.6,29.87,WNW,292,11.0,11.0,61,0.00,,---,0.00,0.00,VWS V14.01,2013-01-08 23:52:00,
2013-01-08 17:55:00,42.9,30.4,29.87,WNW,295,9.0,11.0,61,0.00,,---,0.00,0.00,VWS V14.01,2013-01-08 23:55:00,
2013-01-08 17:57:00,42.8,30.7,29.87,WNW,292,8.0,11.0,62,0.00,,---,0.00,0.00,VWS V14.01,2013-01-08 23:57:00,
2013-01-08 18:00:00,42.6,30.5,29.87,WNW,291,7.0,11.0,62,0.00,,---,0.00,0.00,VWS V14.01,2013-01-09 00:00:00,
2013-01-08 18:03:00,42.3,30.2,29.87,WNW,282,8.0,9.0,62,0.00,,---,0.00,0.00,VWS V14.01,2013-01-09 00:03:00,
2013-01-08 18:05:00,42.2,30.1,29.87,West,281,6.0,9.0,62,0.00,,---,0.00,0.00,VWS V14.01,2013-01-09 00:05:00,
2013-01-08 18:08:00,42.2,30.5,29.87,WNW,285,7.0,10.0,63,0.00,,---,0.00,0.00,VWS V14.01,2013-01-09 00:08:00,
2013-01-08 18:10:00,42.3,30.2,29.87,WNW,292,6.0,10.0,62,0.00,,---,0.00,0.00,VWS V14.01,2013-01-09 00:10:00,
2013-01-08 18:13:00,42.2,30.1,29.87,WNW,291,8.0,8.0,62,0.00,,---,0.00,0.00,VWS V14.01,2013-01-09 00:13:00,
2013-01-08 18:15:00,42.2,30.1,29.89,WNW,292,11.0,11.0,62,0.00,,---,0.00,0.00,VWS V14.01,2013-01-09 00:15:00,
2013-01-08 18:18:00,41.9,30.2,29.89,WNW,291,8.0,11.0,63,0.00,,---,0.00,0.00,VWS V14.01,2013-01-09 00:18:00,
2013-01-08 18:20:00,41.8,30.1,29.89,WNW,282,7.0,11.0,63,0.00,,---,0.00,0.00,VWS V14.01,2013-01-09 00:20:00,
2013-01-08 18:23:00,41.9,30.2,29.89,WNW,292,9.0,12.0,63,0.00,,---,0.00,0.00,VWS V14.01,2013-01-09 00:23:00,
2013-01-08 18:25:00,41.9,30.2,29.89,WNW,295,10.0,12.0,63,0.00,,---,0.00,0.00,VWS V14.01,2013-01-09 00:25:00,
2013-01-08 18:28:00,41.6,30.0,29.89,WNW,292,9.0,12.0,63,0.00,,---,0.00,0.00,VWS V14.01,2013-01-09 00:28:00,
2013-01-08 18:30:00,41.5,29.9,29.89,WNW,292,11.0,12.0,63,0.00,,---,0.00,0.00,VWS V14.01,2013-01-09 00:30:00,
2013-01-08 18:33:00,41.2,30.0,29.89,WNW,282,7.0,11.0,64,0.00,,---,0.00,0.00,VWS V14.01,2013-01-09 00:33:00,
2013-01-08 18:35:00,41.1,29.9,29.89,WNW,284,6.0,11.0,64,0.00,,---,0.00,0.00,VWS V14.01,2013-01-09 00:35:00,
2013-01-08 18:38:00,41.1,30.2,29.89,West,280,7.0,10.0,65,0.00,,---,0.00,0.00,VWS V14.01,2013-01-09 00:38:00,
2013-01-08 18:40:00,41.1,30.2,29.89,West,274,5.0,10.0,65,0.00,,---,0.00,0.00,VWS V14.01,2013-01-09 00:40:00,
2013-01-08 18:43:00,41.2,30.3,29.90,WNW,284,8.0,11.0,65,0.00,,---,0.00,0.00,VWS V14.01,2013-01-09 00:43:00,
2013-01-08 18:45:00,41.2,30.3,29.90,West,277,6.0,11.0,65,0.00,,---,0.00,0.00,VWS V14.01,2013-01-09 00:45:00,
2013-01-08 18:48:00,41.3,30.4,29.90,West,280,8.0,11.0,65,0.00,,---,0.00,0.00,VWS V14.01,2013-01-09 00:48:00,
2013-01-08 18:50:00,41.3,30.4,29.90,WNW,284,10.0,11.0,65,0.00,,---,0.00,0.00,VWS V14.01,2013-01-09 00:50:00,
2013-01-08 18:53:00,41.3,30.4,29.90,WNW,284,7.0,11.0,65,0.00,,---,0.00,0.00,VWS V14.01,2013-01-09 00:53:00,
2013-01-08 18:55:00,41.3,30.4,29.90,West,277,8.0,11.0,65,0.00,,---,0.00,0.00,VWS V14.01,2013-01-09 00:55:00,
2013-01-08 18:58:00,41.3,30.4,29.91,West,277,8.0,12.0,65,0.00,,---,0.00,0.00,VWS V14.01,2013-01-09 00:58:00,
2013-01-08 19:00:00,41.3,30.4,29.91,West,277,6.0,12.0,65,0.00,,---,0.00,0.00,VWS V14.01,2013-01-09 01:00:00,
2013-01-08 19:04:00,41.1,30.2,29.91,WNW,288,9.0,11.0,65,0.00,,---,0.00,0.00,VWS V14.01,2013-01-09 01:04:00,
2013-01-08 19:05:00,41.1,30.2,29.91,WNW,284,8.0,11.0,65,0.00,,---,0.00,0.00,VWS V14.01,2013-01-09 01:05:00,
2013-01-08 19:09:00,40.9,30.1,29.91,WNW,287,7.0,12.0,65,0.00,,---,0.00,0.00,VWS V14.01,2013-01-09 01:09:00,
2013-01-08 19:10:00,40.9,30.1,29.91,West,280,11.0,12.0,65,0.00,,---,0.00,0.00,VWS V14.01,2013-01-09 01:10:00,
2013-01-08 19:14:00,40.6,29.8,29.91,WNW,285,10.0,12.0,65,0.00,,---,0.00,0.00,VWS V14.01,2013-01-09 01:14:00,
2013-01-08 19:15:00,40.6,29.8,29.91,WNW,288,10.0,12.0,65,0.00,,---,0.00,0.00,VWS V14.01,2013-01-09 01:15:00,
2013-01-08 19:19:00,40.2,29.8,29.91,WNW,289,11.0,14.0,66,0.00,,---,0.00,0.00,VWS V14.01,2013-01-09 01:19:00,
2013-01-08 19:20:00,40.2,29.8,29.91,WNW,282,11.0,14.0,66,0.00,,---,0.00,0.00,VWS V14.01,2013-01-09 01:20:00,
2013-01-08 19:24:00,39.9,29.9,29.91,WNW,287,11.0,13.0,67,0.00,,---,0.00,0.00,VWS V14.01,2013-01-09 01:24:00,
2013-01-08 19:25:00,39.9,29.9,29.91,WNW,289,10.0,13.0,67,0.00,,---,0.00,0.00,VWS V14.01,2013-01-09 01:25:00,
2013-01-08 19:29:00,39.9,30.2,29.92,WNW,285,10.0,12.0,68,0.00,,---,0.00,0.00,VWS V14.01,2013-01-09 01:29:00,
2013-01-08 19:30:00,39.9,30.2,29.92,WNW,285,10.0,12.0,68,0.00,,---,0.00,0.00,VWS V14.01,2013-01-09 01:30:00,
2013-01-08 19:34:00,39.9,30.2,29.92,WNW,288,11.0,11.0,68,0.00,,---,0.00,0.00,VWS V14.01,2013-01-09 01:34:00,
2013-01-08 19:35:00,39.8,30.1,29.92,WNW,284,10.0,12.0,68,0.00,,---,0.00,0.00,VWS V14.01,2013-01-09 01:35:00,
2013-01-08 19:39:00,39.6,29.9,29.92,WNW,287,10.0,10.0,68,0.00,,---,0.00,0.00,VWS V14.01,2013-01-09 01:39:00,
2013-01-08 19:40:00,39.6,29.9,29.92,WNW,284,7.0,12.0,68,0.00,,---,0.00,0.00,VWS V14.01,2013-01-09 01:40:00,
2013-01-08 19:44:00,39.5,30.2,29.93,WNW,288,8.0,10.0,69,0.00,,---,0.00,0.00,VWS V14.01,2013-01-09 01:44:00,
2013-01-08 19:45:00,39.5,30.2,29.93,WNW,295,7.0,11.0,69,0.00,,---,0.00,0.00,VWS V14.01,2013-01-09 01:45:00,
2013-01-08 19:50:00,39.3,30.4,29.93,WNW,285,7.0,8.0,70,0.00,,---,0.00,0.00,VWS V14.01,2013-01-09 01:50:00,
2013-01-08 19:55:00,39.3,30.4,29.93,West,280,8.0,8.0,70,0.00,,---,0.00,0.00,VWS V14.01,2013-01-09 01:55:00,
2013-01-08 20:00:00,39.2,30.2,29.93,WNW,285,7.0,8.0,70,0.00,,---,0.00,0.00,VWS V14.01,2013-01-09 02:00:00,
2013-01-08 20:05:00,38.8,29.9,29.93,West,281,7.0,10.0,70,0.00,,---,0.00,0.00,VWS V14.01,2013-01-09 02:05:00,
2013-01-08 20:10:00,38.5,29.9,29.93,WNW,288,7.0,11.0,71,0.00,,---,0.00,0.00,VWS V14.01,2013-01-09 02:10:00,
2013-01-08 20:15:00,38.3,30.1,29.94,WNW,294,8.0,10.0,72,0.00,,---,0.00,0.00,VWS V14.01,2013-01-09 02:15:00,
2013-01-08 20:20:00,37.9,29.7,29.94,WNW,285,10.0,11.0,72,0.00,,---,0.00,0.00,VWS V14.01,2013-01-09 02:20:00,
2013-01-08 20:25:00,37.3,29.5,29.94,WNW,292,9.0,11.0,73,0.00,,---,0.00,0.00,VWS V14.01,2013-01-09 02:25:00,
2013-01-08 20:30:00,36.9,29.4,29.95,WNW,298,9.0,11.0,74,0.00,,---,0.00,0.00,VWS V14.01,2013-01-09 02:30:00,
2013-01-08 20:35:00,36.8,29.6,29.95,NW,311,9.0,11.0,75,0.00,,---,0.00,0.00,VWS V14.01,2013-01-09 02:35:00,
2013-01-08 20:36:00,36.8,29.6,29.95,WNW,296,10.0,11.0,75,0.00,,---,0.00,0.00,VWS V14.01,2013-01-09 02:36:00,
2013-01-08 20:40:00,36.9,29.7,29.95,NW,305,7.0,11.0,75,0.00,,---,0.00,0.00,VWS V14.01,2013-01-09 02:40:00,
2013-01-08 20:41:00,36.9,29.7,29.95,WNW,291,6.0,11.0,75,0.00,,---,0.00,0.00,VWS V14.01,2013-01-09 02:41:00,
2013-01-08 20:45:00,36.9,29.7,29.96,WNW,289,8.0,11.0,75,0.00,,---,0.00,0.00,VWS V14.01,2013-01-09 02:45:00,
2013-01-08 20:46:00,36.8,29.6,29.96,WNW,294,8.0,10.0,75,0.00,,---,0.00,0.00,VWS V14.01,2013-01-09 02:46:00,
2013-01-08 20:50:00,36.8,29.6,29.96,WNW,302,7.0,10.0,75,0.00,,---,0.00,0.00,VWS V14.01,2013-01-09 02:50:00,
2013-01-08 20:51:00,36.8,29.6,29.96,WNW,302,8.0,10.0,75,0.00,,---,0.00,0.00,VWS V14.01,2013-01-09 02:51:00,
2013-01-08 20:55:00,36.6,29.8,29.96,WNW,301,9.0,11.0,76,0.00,,---,0.00,0.00,VWS V14.01,2013-01-09 02:55:00,
2013-01-08 20:56:00,36.8,30.0,29.96,WNW,298,8.0,10.0,76,0.00,,---,0.00,0.00,VWS V14.01,2013-01-09 02:56:00,
2013-01-08 21:00:00,36.9,29.7,29.97,WNW,294,8.0,10.0,75,0.00,,---,0.00,0.00,VWS V14.01,2013-01-09 03:00:00,
2013-01-08 21:01:00,37.0,29.8,29.97,WNW,285,6.0,8.0,75,0.00,,---,0.00,0.00,VWS V14.01,2013-01-09 03:01:00,
2013-01-08 21:05:00,37.0,29.8,29.97,WNW,282,6.0,8.0,75,0.00,,---,0.00,0.00,VWS V14.01,2013-01-09 03:05:00,
2013-01-08 21:06:00,37.0,29.5,29.97,WNW,282,4.0,6.0,74,0.00,,---,0.00,0.00,VWS V14.01,2013-01-09 03:06:00,
2013-01-08 21:10:00,37.2,29.7,29.97,WNW,282,5.0,6.0,74,0.00,,---,0.00,0.00,VWS V14.01,2013-01-09 03:10:00,
2013-01-08 21:11:00,37.0,29.5,29.97,West,278,5.0,6.0,74,0.00,,---,0.00,0.00,VWS V14.01,2013-01-09 03:11:00,
2013-01-08 21:15:00,36.9,29.1,29.97,West,281,4.0,6.0,73,0.00,,---,0.00,0.00,VWS V14.01,2013-01-09 03:15:00,
2013-01-08 21:17:00,36.8,29.3,29.97,WNW,282,3.0,5.0,74,0.00,,---,0.00,0.00,VWS V14.01,2013-01-09 03:17:00,
2013-01-08 21:20:00,36.8,29.3,29.97,West,281,7.0,7.0,74,0.00,,---,0.00,0.00,VWS V14.01,2013-01-09 03:20:00,
2013-01-08 21:22:00,36.9,29.4,29.97,West,281,5.0,7.0,74,0.00,,---,0.00,0.00,VWS V14.01,2013-01-09 03:22:00,
2013-01-08 21:25:00,36.8,29.3,29.97,West,278,6.0,7.0,74,0.00,,---,0.00,0.00,VWS V14.01,2013-01-09 03:25:00,
2013-01-08 21:27:00,36.6,28.8,29.97,West,278,5.0,7.0,73,0.00,,---,0.00,0.00,VWS V14.01,2013-01-09 03:27:00,
2013-01-08 21:30:00,36.5,29.0,29.97,WNW,282,6.0,7.0,74,0.00,,---,0.00,0.00,VWS V14.01,2013-01-09 03:30:00,
2013-01-08 21:32:00,36.5,29.0,29.97,WNW,287,6.0,7.0,74,0.00,,---,0.00,0.00,VWS V14.01,2013-01-09 03:32:00,
2013-01-08 21:35:00,36.3,28.5,29.97,WNW,289,7.0,7.0,73,0.00,,---,0.00,0.00,VWS V14.01,2013-01-09 03:35:00,
2013-01-08 21:37:00,36.2,28.4,29.97,WNW,291,8.0,8.0,73,0.00,,---,0.00,0.00,VWS V14.01,2013-01-09 03:37:00,
2013-01-08 21:40:00,36.0,28.2,29.97,WNW,289,7.0,8.0,73,0.00,,---,0.00,0.00,VWS V14.01,2013-01-09 03:40:00,
2013-01-08 21:42:00,36.0,28.5,29.97,NW,313,10.0,10.0,74,0.00,,---,0.00,0.00,VWS V14.01,2013-01-09 03:42:00,
2013-01-08 21:45:00,36.0,28.5,29.98,NW,309,8.0,10.0,74,0.00,,---,0.00,0.00,VWS V14.01,2013-01-09 03:45:00,
2013-01-08 21:47:00,35.9,28.4,29.98,NW,309,7.0,9.0,74,0.00,,---,0.00,0.00,VWS V14.01,2013-01-09 03:47:00,
2013-01-08 21:50:00,35.9,28.4,29.98,NW,311,5.0,9.0,74,0.00,,---,0.00,0.00,VWS V14.01,2013-01-09 03:50:00,
2013-01-08 21:52:00,35.8,28.3,29.98,NW,306,5.0,6.0,74,0.00,,---,0.00,0.00,VWS V14.01,2013-01-09 03:52:00,
2013-01-08 21:55:00,35.8,28.3,29.98,NW,308,3.0,6.0,74,0.00,,---,0.00,0.00,VWS V14.01,2013-01-09 03:55:00,
2013-01-08 21:57:00,35.5,28.0,29.98,NW,305,5.0,5.0,74,0.00,,---,0.00,0.00,VWS V14.01,2013-01-09 03:57:00,
2013-01-08 22:00:00,35.5,28.0,29.99,NW,305,4.0,5.0,74,0.00,,---,0.00,0.00,VWS V14.01,2013-01-09 04:00:00,
2013-01-08 22:02:00,35.3,27.9,29.99,NW,313,6.0,6.0,74,0.00,,---,0.00,0.00,VWS V14.01,2013-01-09 04:02:00,
2013-01-08 22:05:00,35.3,28.2,29.99,WNW,302,6.0,6.0,75,0.00,,---,0.00,0.00,VWS V14.01,2013-01-09 04:05:00,
2013-01-08 22:08:00,35.3,28.2,29.99,NW,309,5.0,8.0,75,0.00,,---,0.00,0.00,VWS V14.01,2013-01-09 04:08:00,
2013-01-08 22:10:00,35.3,28.2,29.99,NW,308,6.0,8.0,75,0.00,,---,0.00,0.00,VWS V14.01,2013-01-09 04:10:00,
2013-01-08 22:13:00,35.3,28.2,29.99,WNW,302,6.0,7.0,75,0.00,,---,0.00,0.00,VWS V14.01,2013-01-09 04:13:00,
2013-01-08 22:15:00,35.3,28.2,29.99,NW,304,6.0,7.0,75,0.00,,---,0.00,0.00,VWS V14.01,2013-01-09 04:15:00,
2013-01-08 22:18:00,35.3,28.2,29.99,NW,311,6.0,8.0,75,0.00,,---,0.00,0.00,VWS V14.01,2013-01-09 04:18:00,
2013-01-08 22:20:00,35.3,28.2,29.99,NW,306,5.0,8.0,75,0.00,,---,0.00,0.00,VWS V14.01,2013-01-09 04:20:00,
2013-01-08 22:23:00,35.2,28.1,29.99,WNW,301,6.0,7.0,75,0.00,,---,0.00,0.00,VWS V14.01,2013-01-09 04:23:00,
2013-01-08 22:25:00,35.2,28.1,29.99,NW,304,6.0,7.0,75,0.00,,---,0.00,0.00,VWS V14.01,2013-01-09 04:25:00,
2013-01-08 22:28:00,35.2,28.1,29.99,NW,304,6.0,7.0,75,0.00,,---,0.00,0.00,VWS V14.01,2013-01-09 04:28:00,
2013-01-08 22:30:00,35.2,28.1,29.99,NW,305,6.0,7.0,75,0.00,,---,0.00,0.00,VWS V14.01,2013-01-09 04:30:00,
2013-01-08 22:33:00,35.0,27.9,29.99,NW,306,7.0,8.0,75,0.00,,---,0.00,0.00,VWS V14.01,2013-01-09 04:33:00,
2013-01-08 22:35:00,35.2,28.1,29.99,NW,305,7.0,8.0,75,0.00,,---,0.00,0.00,VWS V14.01,2013-01-09 04:35:00,
2013-01-08 22:38:00,35.2,28.1,29.99,NW,306,8.0,9.0,75,0.00,,---,0.00,0.00,VWS V14.01,2013-01-09 04:38:00,
2013-01-08 22:40:00,35.2,28.1,29.99,NW,304,9.0,9.0,75,0.00,,---,0.00,0.00,VWS V14.01,2013-01-09 04:40:00,
2013-01-08 22:44:00,35.5,28.0,30.00,NW,304,8.0,10.0,74,0.00,,---,0.00,0.00,VWS V14.01,2013-01-09 04:44:00,
2013-01-08 22:45:00,35.5,28.0,30.00,NW,308,10.0,10.0,74,0.00,,---,0.00,0.00,VWS V14.01,2013-01-09 04:45:00,
2013-01-08 22:49:00,35.5,28.0,30.00,NW,308,8.0,10.0,74,0.00,,---,0.00,0.00,VWS V14.01,2013-01-09 04:49:00,
2013-01-08 22:50:00,35.5,28.0,30.00,NW,304,8.0,10.0,74,0.00,,---,0.00,0.00,VWS V14.01,2013-01-09 04:50:00,
2013-01-08 22:54:00,35.6,27.8,30.00,NW,322,7.0,8.0,73,0.00,,---,0.00,0.00,VWS V14.01,2013-01-09 04:54:00,
2013-01-08 22:55:00,35.6,27.8,30.00,NW,309,6.0,8.0,73,0.00,,---,0.00,0.00,VWS V14.01,2013-01-09 04:55:00,
2013-01-08 22:59:00,35.5,27.7,30.01,NW,319,6.0,7.0,73,0.00,,---,0.00,0.00,VWS V14.01,2013-01-09 04:59:00,
2013-01-08 23:00:00,35.5,27.7,30.01,NW,309,7.0,7.0,73,0.00,,---,0.00,0.00,VWS V14.01,2013-01-09 05:00:00,
2013-01-08 23:01:00,35.5,27.7,30.01,NW,311,6.0,7.0,73,0.00,,---,0.00,0.00,VWS V14.01,2013-01-09 05:01:00,
2013-01-08 23:02:00,35.5,27.7,30.01,NW,306,7.0,7.0,73,0.00,,---,0.00,0.00,VWS V14.01,2013-01-09 05:02:00,
2013-01-08 23:05:00,35.6,27.8,30.01,NW,311,5.0,7.0,73,0.00,,---,0.00,0.00,VWS V14.01,2013-01-09 05:05:00,
2013-01-08 23:07:00,35.6,27.8,30.01,NW,313,6.0,6.0,73,0.00,,---,0.00,0.00,VWS V14.01,2013-01-09 05:07:00,
2013-01-08 23:10:00,35.6,27.8,30.01,NW,311,6.0,7.0,73,0.00,,---,0.00,0.00,VWS V14.01,2013-01-09 05:10:00,
2013-01-08 23:12:00,35.6,27.8,30.01,NW,318,6.0,7.0,73,0.00,,---,0.00,0.00,VWS V14.01,2013-01-09 05:12:00,
2013-01-08 23:15:00,35.6,27.8,30.01,NW,308,6.0,7.0,73,0.00,,---,0.00,0.00,VWS V14.01,2013-01-09 05:15:00,
2013-01-08 23:17:00,35.6,27.8,30.01,NW,325,5.0,7.0,73,0.00,,---,0.00,0.00,VWS V14.01,2013-01-09 05:17:00,
2013-01-08 23:20:00,35.6,27.8,30.01,NW,319,7.0,7.0,73,0.00,,---,0.00,0.00,VWS V14.01,2013-01-09 05:20:00,
2013-01-08 23:22:00,35.5,27.7,30.01,NW,316,6.0,7.0,73,0.00,,---,0.00,0.00,VWS V14.01,2013-01-09 05:22:00,
2013-01-08 23:25:00,35.5,27.7,30.01,NW,319,5.0,7.0,73,0.00,,---,0.00,0.00,VWS V14.01,2013-01-09 05:25:00,
2013-01-08 23:27:00,35.5,27.7,30.01,NW,318,5.0,7.0,73,0.00,,---,0.00,0.00,VWS V14.01,2013-01-09 05:27:00,
2013-01-08 23:30:00,35.5,27.7,30.02,NW,318,5.0,7.0,73,0.00,,---,0.00,0.00,VWS V14.01,2013-01-09 05:30:00,
2013-01-08 23:32:00,35.5,27.7,30.02,NNW,339,6.0,7.0,73,0.00,,---,0.00,0.00,VWS V14.01,2013-01-09 05:32:00,
2013-01-08 23:35:00,35.5,27.7,30.02,NW,320,6.0,7.0,73,0.00,,---,0.00,0.00,VWS V14.01,2013-01-09 05:35:00,
2013-01-08 23:38:00,35.6,27.8,30.02,NW,312,5.0,6.0,73,0.00,,---,0.00,0.00,VWS V14.01,2013-01-09 05:38:00,
2013-01-08 23:40:00,35.6,27.8,30.02,NW,313,5.0,6.0,73,0.00,,---,0.00,0.00,VWS V14.01,2013-01-09 05:40:00,
2013-01-08 23:43:00,35.8,28.0,30.02,NW,313,3.0,6.0,73,0.00,,---,0.00,0.00,VWS V14.01,2013-01-09 05:43:00,
2013-01-08 23:45:00,35.8,28.0,30.03,NW,311,4.0,6.0,73,0.00,,---,0.00,0.00,VWS V14.01,2013-01-09 05:45:00,
2013-01-08 23:48:00,35.9,28.1,30.03,NW,315,3.0,6.0,73,0.00,,---,0.00,0.00,VWS V14.01,2013-01-09 05:48:00,
2013-01-08 23:50:00,35.9,28.1,30.03,NW,313,3.0,6.0,73,0.00,,---,0.00,0.00,VWS V14.01,2013-01-09 05:50:00,
2013-01-08 23:53:00,36.0,28.2,30.03,NW,312,1.0,5.0,73,0.00,,---,0.00,0.00,VWS V14.01,2013-01-09 05:53:00,
2013-01-08 23:55:00,36.0,28.2,30.03,NW,313,2.0,5.0,73,0.00,,---,0.00,0.00,VWS V14.01,2013-01-09 05:55:00,
2013-01-08 23:58:00,36.0,27.9,30.03,NW,313,0.0,2.0,72,0.00,,---,0.00,0.00,VWS V14.01,2013-01-09 05:58:00,